[[{"header":{"parameterUnit":"m.s-1","parameterCategory":1,"la1":30.2991,"la2":30.254,"lo1":-89.0895,"lo2":-89.0444,"dy":0.0017,"dx":0.0017,"nx":28,"ny":28,"refTime":"2025-09-04T03:00:00:Z","depth":0,"parameterNumber":2,"parameterNumberName":"U-component_of_WINDS"},"data":[0,0,0,0,0,0,0,0,0,0,0,0,0,0,0,0,0,0,0,0,0,0,0,0,0,0,0,0,0,0,0,0,0,0,0,0,0,0,0,0,0,0,0,0,0,0,0,0,0,0,0,0,0,0,0,0,0,0,-0.4451,-0.4451,0,-0.444,-0.444,-0.4439,-0.4418,-0.4418,-0.4417,-0.4417,-0.4406,-0.4406,-0.4406,0,0,0,0,0,0,0,0,0,0,0,0,0,-0.4457,-0.4457,-0.4451,-0.4451,-0.4451,-0.444,-0.444,-0.4439,-0.4418,-0.4418,-0.4417,-0.4417,-0.4406,-0.4406,-0.4406,0,0,0,0,0,0,0,0,0,0,0,0,0,-0.4451,-0.4457,-0.4451,-0.4439,-0.4438,-0.444,-0.444,-0.4439,-0.4418,-0.4418,-0.4417,-0.4416,-0.4406,-0.4406,-0.4406,-0.442,0,0,-0.4407,-0.4407,0,0,0,0,0,0,0,0,-0.4451,-0.445,-0.4441,-0.444,-0.4438,-0.443,-0.4437,-0.4433,-0.4418,-0.4426,-0.4417,-0.4416,-0.4414,-0.4414,-0.4413,-0.4419,-0.4419,-0.4407,-0.4407,-0.4407,-0.4407,0,0,0,0,0,0,0,-0.4451,-0.4451,-0.4447,-0.4441,-0.4439,-0.4435,-0.4433,-0.4437,-0.4424,-0.4425,-0.4423,-0.4422,-0.4414,-0.4413,-0.4413,-0.4419,-0.4407,-0.4407,-0.4407,-0.4407,-0.4436,-0.4437,0,0,0,0,0,0,-0.4453,-0.4451,-0.4447,-0.4446,-0.4443,-0.4435,-0.4433,-0.4433,-0.4424,-0.4422,-0.4423,-0.4421,-0.4413,-0.4413,-0.4412,-0.4428,-0.4407,-0.4407,-0.4407,-0.4436,-0.4437,-0.4437,0,0,0,0,0,0,-0.4454,-0.4453,-0.4448,-0.4448,-0.4447,-0.4436,-0.4436,-0.4433,-0.4433,-0.4422,-0.442,-0.4424,-0.4413,-0.4412,-0.4418,-0.4428,-0.4407,-0.4407,-0.4435,-0.4436,-0.4437,-0.446,0,0,0,0,0,0,-0.4454,-0.4453,-0.4458,-0.4449,-0.4447,-0.4453,-0.4436,-0.4433,-0.4433,-0.4431,-0.4423,-0.4421,-0.4412,-0.4418,-0.4418,-0.4427,-0.4407,-0.4434,-0.4435,-0.4437,-0.4458,-0.4462,-0.4464,0,0,0,0,0,-0.4454,-0.4465,-0.4458,-0.4458,-0.4453,-0.4454,-0.4453,-0.4442,-0.4434,-0.4438,-0.4432,-0.4421,-0.4426,-0.4419,-0.4419,-0.4428,-0.4433,-0.4435,-0.4436,-0.4457,-0.4461,-0.4464,0,0,0,0,0,0,-0.4476,-0.4463,-0.4456,-0.4464,-0.446,-0.445,-0.4456,-0.4447,-0.4446,-0.4444,-0.4431,-0.4429,-0.4437,-0.4433,-0.4425,-0.4441,-0.4428,-0.443,-0.4444,-0.4448,-0.4451,-0.4452,-0.4407,0,0,0,0,0,-0.4481,-0.4483,-0.4472,-0.448,-0.4479,-0.4468,-0.4468,-0.446,-0.4456,-0.4454,-0.4448,-0.4444,-0.4445,-0.4446,-0.4446,-0.4457,-0.4456,-0.4464,-0.4467,-0.447,-0.4471,-0.4478,-0.4482,-0.4442,-0.4442,-0.4442,0,0,-0.4493,-0.4487,-0.4489,-0.4485,-0.4481,-0.4483,-0.4467,-0.447,-0.4472,-0.4454,-0.446,-0.4456,-0.4451,-0.446,-0.4464,-0.4457,-0.4482,-0.4472,-0.4474,-0.4474,-0.448,-0.4484,-0.4487,-0.4443,-0.4443,-0.4443,0,0,-0.4516,-0.4511,-0.4518,-0.4514,-0.4509,-0.4501,-0.4503,-0.4495,-0.4491,-0.4496,-0.4484,-0.4486,-0.4488,-0.4485,-0.4484,-0.4507,-0.4498,-0.4508,-0.4524,-0.4531,-0.4534,-0.4537,-0.4546,-0.4549,-0.4509,-0.4509,-0.4509,0,-0.4532,-0.4535,-0.4523,-0.4527,-0.4526,-0.451,-0.4518,-0.4515,-0.451,-0.451,-0.4502,-0.4504,-0.45,-0.4509,-0.4515,-0.4514,-0.4516,-0.4509,-0.4534,-0.4537,-0.4539,-0.4548,-0.4551,-0.4511,-0.451,-0.451,-0.451,0,-0.4555,-0.4557,-0.4563,-0.4559,-0.4559,-0.4564,-0.4554,-0.4555,-0.4547,-0.4541,-0.4547,-0.4541,-0.4541,-0.4542,-0.4534,-0.455,-0.4546,-0.4537,-0.4523,-0.4545,-0.4553,-0.4556,-0.4512,-0.4512,-0.4512,-0.4511,0,0,-0.4592,-0.458,-0.4583,-0.4581,-0.4574,-0.4576,-0.4581,-0.458,-0.4582,-0.4579,-0.4584,-0.4586,-0.4577,-0.4576,-0.4568,-0.4574,-0.4594,-0.4564,-0.4564,-0.4571,-0.4612,-0.462,-0.4624,-0.4588,-0.4588,-0.4588,-0.4613,0,-0.4614,-0.4622,-0.4612,-0.4623,-0.4625,-0.4611,-0.4615,-0.4612,-0.4606,-0.4608,-0.4602,-0.4604,-0.4592,-0.4591,-0.4596,-0.4591,-0.4602,-0.4588,-0.4593,-0.4593,-0.4595,-0.4628,-0.4637,-0.466,-0.4616,-0.4617,-0.4617,0,-0.4641,-0.464,-0.4651,-0.4644,-0.4645,-0.4649,-0.4648,-0.4649,-0.4646,-0.4641,-0.464,-0.4631,-0.4636,-0.4623,-0.4631,-0.4622,-0.4623,-0.462,-0.4621,-0.4622,-0.4607,-0.4631,-0.4667,-0.4671,-0.4622,-0.4621,-0.4621,0,-0.4668,-0.4669,-0.4676,-0.4675,-0.4666,-0.467,-0.4667,-0.4662,-0.4663,-0.4662,-0.4662,-0.4662,-0.4662,-0.4662,-0.4653,-0.4644,-0.4663,-0.4648,-0.466,-0.466,-0.4665,-0.4665,-0.4703,-0.4664,-0.4664,-0.4664,-0.4664,0,-0.4695,-0.4703,-0.4688,-0.4693,-0.4701,-0.4689,-0.4698,-0.4693,-0.469,-0.4693,-0.468,-0.4684,-0.4672,-0.4674,-0.4667,-0.4676,-0.4676,-0.4673,-0.4671,-0.4675,-0.4675,-0.4676,-0.4674,-0.4665,-0.4665,-0.4665,-0.4665,0,-0.4727,-0.4718,-0.4725,-0.4716,-0.4714,-0.4721,-0.4714,-0.4718,-0.4712,-0.4717,-0.4717,-0.4707,-0.471,-0.4701,-0.4702,-0.4697,-0.471,-0.4705,-0.4711,-0.471,-0.4723,-0.4722,-0.4764,-0.4769,-0.4726,-0.4726,-0.4727,0,-0.4745,-0.4751,-0.4743,-0.4745,-0.4742,-0.4745,-0.4745,-0.4734,-0.4735,-0.4731,-0.4736,-0.4737,-0.4738,-0.4743,-0.4737,-0.4738,-0.4733,-0.4748,-0.4734,-0.4737,-0.4735,-0.4735,-0.4736,-0.4751,-0.4752,-0.4752,-0.4752,0,-0.4779,-0.4774,-0.4775,-0.4775,-0.4776,-0.4775,-0.4773,-0.4775,-0.4763,-0.4765,-0.4767,-0.4768,-0.4769,-0.4771,-0.4771,-0.4768,-0.4759,-0.4757,-0.476,-0.4764,-0.4768,-0.4767,-0.4721,-0.4756,-0.4756,-0.4755,-0.4755,-0.4755,-0.4806,-0.4811,-0.4806,-0.4808,-0.4805,-0.4804,-0.4808,-0.4802,-0.4804,-0.4804,-0.4797,-0.4801,-0.4798,-0.4796,-0.4794,-0.4798,-0.4791,-0.4795,-0.4797,-0.4798,-0.4801,-0.4766,-0.4798,-0.4798,-0.4797,-0.4797,-0.4797,0,-0.484,-0.4837,-0.4838,-0.4836,-0.4838,-0.4828,-0.4826,-0.4828,-0.4832,-0.4829,-0.483,-0.4834,-0.4836,-0.4829,-0.483,-0.4835,-0.483,-0.4835,-0.4836,-0.4835,-0.4806,-0.4804,-0.4839,-0.4839,-0.4839,-0.4839,-0.4839,-0.4839,-0.4858,-0.4866,-0.4861,-0.4868,-0.4864,-0.4868,-0.4867,-0.4867,-0.4865,-0.4869,-0.4871,-0.4866,-0.4862,-0.4863,-0.4865,-0.4863,-0.4865,-0.4872,-0.4868,-0.4841,-0.4837,-0.4833,-0.4831,-0.4872,-0.4872,-0.4897,-0.4898,-0.4898]},{"header":{"parameterUnit":"m.s-1","parameterCategory":1,"la1":30.2991,"la2":30.254,"lo1":-89.0895,"lo2":-89.0444,"dy":0.0017,"dx":0.0017,"nx":28,"ny":28,"refTime":"2025-09-04T03:00:00:Z","depth":0,"parameterNumber":3,"parameterNumberName":"V-component_of_WINDS"},"data":[0,0,0,0,0,0,0,0,0,0,0,0,0,0,0,0,0,0,0,0,0,0,0,0,0,0,0,0,0,0,0,0,0,0,0,0,0,0,0,0,0,0,0,0,0,0,0,0,0,0,0,0,0,0,0,0,0,0,4.592,4.592,0,4.5886,4.5886,4.5886,4.5821,4.582,4.5819,4.5818,4.5784,4.5784,4.5784,0,0,0,0,0,0,0,0,0,0,0,0,0,4.5929,4.5929,4.592,4.592,4.5919,4.5886,4.5886,4.5885,4.5821,4.582,4.5818,4.5817,4.5784,4.5784,4.5784,0,0,0,0,0,0,0,0,0,0,0,0,0,4.5913,4.5929,4.592,4.5883,4.588,4.5886,4.5886,4.5885,4.5822,4.582,4.5818,4.5816,4.5784,4.5784,4.5784,4.5825,0,0,4.5786,4.5786,0,0,0,0,0,0,0,0,4.5914,4.5913,4.5889,4.5886,4.5882,4.5856,4.5877,4.5865,4.5822,4.5844,4.5817,4.5815,4.5809,4.5808,4.5805,4.5823,4.5822,4.5786,4.5786,4.5786,4.5786,0,0,0,0,0,0,0,4.5916,4.5914,4.5907,4.5889,4.5884,4.5868,4.5864,4.5874,4.5838,4.5842,4.5837,4.5834,4.5807,4.5805,4.5804,4.5821,4.5786,4.5786,4.5786,4.5786,4.5869,4.587,0,0,0,0,0,0,4.5922,4.5916,4.5908,4.5906,4.5894,4.587,4.5865,4.5866,4.5837,4.5831,4.5835,4.5831,4.5805,4.5804,4.5803,4.5846,4.5786,4.5786,4.5787,4.5867,4.5869,4.5871,0,0,0,0,0,0,4.5922,4.5922,4.5909,4.5909,4.5906,4.5872,4.5874,4.5867,4.5864,4.5833,4.5826,4.584,4.5804,4.5802,4.5819,4.5844,4.5787,4.5787,4.5864,4.5867,4.587,4.5935,0,0,0,0,0,0,4.5923,4.5922,4.5937,4.591,4.5907,4.5926,4.5875,4.5867,4.5865,4.5859,4.5835,4.5829,4.5802,4.5819,4.582,4.5844,4.5787,4.5862,4.5866,4.5869,4.5931,4.594,4.5948,0,0,0,0,0,4.5923,4.5957,4.5938,4.5938,4.5924,4.5928,4.5926,4.5894,4.5868,4.5882,4.5861,4.583,4.5842,4.5821,4.5822,4.5846,4.586,4.5865,4.5869,4.5927,4.5938,4.5948,0,0,0,0,0,0,4.5989,4.5953,4.5932,4.5958,4.5946,4.5917,4.5934,4.5907,4.5903,4.5897,4.5858,4.5853,4.5875,4.5863,4.584,4.5883,4.5846,4.5851,4.589,4.59,4.5909,4.5911,4.5788,0,0,0,0,0,4.6006,4.6012,4.598,4.6006,4.6002,4.5969,4.597,4.5946,4.5932,4.5927,4.5908,4.5896,4.5897,4.5898,4.5898,4.5929,4.5922,4.5946,4.5955,4.5962,4.5966,4.598,4.599,4.5885,4.5885,4.5885,0,0,4.6042,4.6023,4.6029,4.6019,4.6007,4.6014,4.5966,4.5975,4.5979,4.5929,4.5943,4.5929,4.5913,4.5937,4.5947,4.5927,4.5994,4.5968,4.5974,4.5974,4.5986,4.5996,4.6004,4.5888,4.5888,4.5887,0,0,4.611,4.6097,4.6117,4.6106,4.6089,4.6067,4.6072,4.6047,4.6035,4.6049,4.6011,4.6016,4.6018,4.6008,4.6004,4.6068,4.6039,4.6069,4.6114,4.6128,4.6136,4.6143,4.6165,4.6173,4.6074,4.6074,4.6074,0,4.6157,4.6165,4.613,4.6141,4.6138,4.6093,4.6112,4.6103,4.6087,4.6085,4.6064,4.6066,4.6052,4.6072,4.6088,4.6086,4.609,4.6071,4.6138,4.6145,4.6151,4.6171,4.6179,4.6077,4.6077,4.6077,4.6076,0,4.6222,4.6229,4.6247,4.6231,4.623,4.6245,4.6213,4.6215,4.6192,4.6172,4.6187,4.6169,4.6163,4.6167,4.6144,4.6184,4.6172,4.6145,4.6107,4.6165,4.6183,4.619,4.6083,4.6081,4.608,4.6079,0,0,4.6329,4.6295,4.6302,4.6294,4.6272,4.6276,4.6289,4.6283,4.6285,4.6276,4.6285,4.6289,4.6263,4.6258,4.6234,4.6247,4.6297,4.6218,4.6217,4.6232,4.6338,4.6357,4.6366,4.6278,4.628,4.6281,4.6338,0,4.6391,4.6411,4.6381,4.6407,4.6412,4.637,4.6381,4.6368,4.6351,4.6352,4.6333,4.6335,4.6302,4.6299,4.631,4.6289,4.6318,4.6285,4.6286,4.6286,4.6289,4.6376,4.6396,4.6451,4.6345,4.6347,4.6348,0,4.6466,4.6459,4.6486,4.6462,4.6463,4.6473,4.6465,4.6467,4.6452,4.6438,4.6432,4.6404,4.6415,4.6379,4.6393,4.6371,4.637,4.636,4.6361,4.6358,4.6319,4.6374,4.6468,4.6476,4.6359,4.6358,4.6357,0,4.6539,4.6537,4.6553,4.6548,4.652,4.6528,4.6517,4.65,4.6498,4.6491,4.6489,4.6484,4.6481,4.6477,4.6447,4.6425,4.6464,4.6427,4.6452,4.6453,4.6461,4.646,4.6554,4.6464,4.6463,4.6463,4.6463,0,4.661,4.6628,4.6585,4.6594,4.6613,4.6578,4.6598,4.6582,4.6568,4.6573,4.6537,4.6543,4.6504,4.6506,4.6484,4.6497,4.6497,4.6485,4.6478,4.6487,4.6488,4.6484,4.6479,4.6465,4.6465,4.6464,4.6464,0,4.6694,4.6666,4.668,4.6653,4.6646,4.6661,4.6637,4.6645,4.6625,4.6632,4.6632,4.6601,4.6601,4.6572,4.6566,4.6551,4.6573,4.6561,4.6578,4.6573,4.66,4.6597,4.6693,4.6703,4.6608,4.6609,4.661,0,4.674,4.6753,4.6726,4.6727,4.6718,4.672,4.6718,4.6684,4.6683,4.6667,4.6676,4.6673,4.6669,4.6671,4.6647,4.6643,4.6628,4.6662,4.6627,4.6635,4.6626,4.6625,4.6626,4.6669,4.667,4.6671,4.6672,0,4.6824,4.681,4.6808,4.6801,4.6799,4.6792,4.6783,4.6786,4.6749,4.675,4.6749,4.6746,4.674,4.6737,4.6728,4.6716,4.6688,4.6684,4.6689,4.6697,4.6706,4.6699,4.6596,4.6681,4.668,4.668,4.6679,4.6679,4.6889,4.6898,4.6881,4.688,4.6869,4.6861,4.6866,4.6847,4.6846,4.6838,4.6819,4.6821,4.6805,4.679,4.6781,4.6781,4.6764,4.6772,4.6774,4.6776,4.678,4.6707,4.678,4.678,4.6779,4.6779,4.6779,0,4.697,4.6957,4.6956,4.6944,4.6943,4.6918,4.6906,4.6907,4.6909,4.6897,4.6893,4.6892,4.6889,4.6865,4.6859,4.6865,4.6851,4.6864,4.6862,4.686,4.6797,4.6792,4.6875,4.6875,4.6875,4.6875,4.6875,4.6875,4.7012,4.7025,4.7008,4.7016,4.7002,4.7004,4.7,4.6992,4.6982,4.6982,4.6979,4.6964,4.6947,4.6939,4.6935,4.6928,4.6927,4.6943,4.6932,4.6874,4.6864,4.6855,4.685,4.6944,4.6944,4.6994,4.6995,4.6995]}]]